Content
SEND FEEDBACK

Daily
Averages
Monthly
Summary
United States of America

CAMP QUEZON, GUAM


Home > North America > United States > Guam
Elevation: 269 feet     Latitude: 13 28N     Longitude: 144 48E

WEATHER
 
SELECT A DAY
Number of Records: 214,928;   Date Range: 1/1/95 - 11/26/14
 
SHARE

PRINT THIS DATA

[ ← Previous Day ]
WEATHER ALMANAC - JANUARY 21, 2014
[ Next Day → ]
[ °C ]   °F
Weather ElementAverageHighLow
Temperature78.8 °F84.9 °F (11:54 am)75 °F (9:54 pm)
Dewpoint74.5 °F77 °F (1:54 pm)72 °F (4:54 am)
Humidity87.3 %100 % (7:31 pm)67 % (11:54 am)
Barometer29.83 in29.89 in (10:00 pm)29.75 in (2:54 pm)
Wind Speed11.2 mph18.4 mph (3:19 pm)
Wind Gust27.6 mph (3:19 pm)
Weather ElementAverage
Visibility7 mi
Wind DirectionESE (98.9 °)

Weather ElementTotal
Precipitation3.16 in
Cooling Degree Days15 (Base 65)
Growing Degree Days30 (Base 50)
Averaged from 45 records on January 21, 2014
WEATHER CONDITIONS BREAKOUT
WIND DIRECTION BREAKOUT
WEATHER BY HOUR - JANUARY 21, 2014
[ °C ]   °F
Local TimeTemperatureDewpointHumidityBarometerVisibilityWind DirectionWind SpeedGust SpeedPrecipitationEventsConditions
1:54 AM78.1 °F73.9 °F87 %29.83 in10.0 miEast (80°)10.4 mphPartly Cloudy
2:54 AM79.0 °F73.9 °F84 %29.81 in10.0 miEast (80°)9.2 mphMostly Cloudy
3:54 AM79.0 °F73.0 °F82 %29.80 in10.0 miEast (80°)11.5 mph0.00 inMostly Cloudy
4:54 AM80.1 °F72.0 °F76 %29.79 in10.0 miEast (80°)11.5 mphClear
5:54 AM80.1 °F72.0 °F76 %29.81 in10.0 miEast (80°)8.1 mphClear
6:54 AM80.1 °F73.0 °F79 %29.81 in10.0 miEast (80°)11.5 mphPartly Cloudy
7:54 AM81.0 °F73.0 °F77 %29.84 in10.0 miENE (70°)11.5 mphPartly Cloudy
8:54 AM82.0 °F73.9 °F76 %29.85 in10.0 miEast (80°)12.7 mphScattered Clouds
9:26 AM82.4 °F75.2 °F79 %29.87 in10.0 miEast (80°)15.0 mphMostly Cloudy
9:54 AM82.9 °F73.9 °F74 %29.84 in10.0 miEast (90°)16.1 mphMostly Cloudy
10:54 AM84.0 °F73.9 °F72 %29.84 in10.0 miEast (90°)15.0 mph23.0 mphClear
11:54 AM84.9 °F73.0 °F67 %29.82 in10.0 miENE (70°)17.3 mph23.0 mphPartly Cloudy
12:42 PM82.4 °F75.2 °F79 %29.83 in10.0 miEast (80°)12.7 mph21.9 mphMostly Cloudy
12:54 PM84.0 °F73.9 °F72 %29.80 in10.0 miEast (80°)12.7 mph20.7 mphMostly Cloudy
1:01 PM84.2 °F73.4 °F70 %29.82 in10.0 miEast (90°)15.0 mph20.7 mphPartly Cloudy
1:34 PM78.8 °F73.4 °F83 %29.81 in2.5 miEast (80°)17.3 mph26.5 mph0.01 inRainRain
1:42 PM78.8 °F75.2 °F89 %29.80 in4.0 miEast (90°)6.9 mph23.0 mph0.07 inRainLight Rain
1:54 PM78.1 °F77.0 °F96 %29.78 in4.0 miENE (60°)9.2 mph0.11 inRainLight Rain
2:54 PM81.0 °F77.0 °F88 %29.75 in10.0 miNE (50°)12.7 mph0.01 inMostly Cloudy
3:19 PM78.8 °F75.2 °F89 %29.78 in2.0 miENE (70°)18.4 mph27.6 mphRainHeavy Rain
3:26 PM78.8 °F75.2 °F89 %29.78 in2.0 miNE (50°)12.7 mphRainRain
3:32 PM78.8 °F75.2 °F89 %29.78 in3.0 miNE (50°)11.5 mphRainRain
3:54 PM78.1 °F75.9 °F93 %29.76 in3.0 miENE (70°)15.0 mphRainRain
4:33 PM80.6 °F75.2 °F84 %29.80 in10.0 miEast (80°)11.5 mph0.02 inMostly Cloudy
4:46 PM80.6 °F75.2 °F84 %29.80 in10.0 miEast (80°)11.5 mph0.02 inOvercast
4:54 PM80.1 °F75.9 °F87 %29.78 in10.0 miEast (80°)12.7 mph0.02 inOvercast
5:54 PM79.0 °F75.0 °F88 %29.80 in7.0 miEast (80°)10.4 mph0.00 inRainLight Rain
6:25 PM78.8 °F75.2 °F89 %29.83 in10.0 miEast (90°)8.1 mph0.00 inOvercast
6:54 PM79.0 °F75.9 °F90 %29.81 in10.0 miEast (90°)6.9 mph0.00 inOvercast
7:31 PM75.2 °F75.2 °F100 %29.85 in2.5 miESE (110°)10.4 mph0.12 inRainHeavy Rain
7:36 PM75.2 °F75.2 °F100 %29.85 in4.0 miEast (90°)12.7 mph19.6 mph0.14 inRainHeavy Rain
7:45 PM75.2 °F75.2 °F100 %29.85 in6.0 miEast (90°)16.1 mph23.0 mph0.16 inRainRain
7:54 PM75.9 °F75.0 °F97 %29.84 in5.0 miEast (100°)11.5 mph20.7 mph0.20 inRainRain
7:59 PM77.0 °F75.2 °F94 %29.86 in8.0 miESE (110°)11.5 mph0.01 inRainLight Rain
8:09 PM77.0 °F75.2 °F94 %29.87 in9.0 miEast (100°)12.7 mph20.7 mph0.02 inRainRain
8:26 PM77.0 °F75.2 °F94 %29.87 in5.0 miEast (100°)8.1 mph0.12 inRainRain
8:54 PM77.0 °F75.9 °F96 %29.84 in6.0 miEast (100°)10.4 mph0.21 inRainHeavy Rain
9:35 PM75.2 °F75.2 °F100 %29.87 in2.5 miSSW (200°)8.1 mph0.18 inRainHeavy Rain
9:54 PM75.0 °F73.9 °F96 %29.86 in4.0 miSSW (200°)6.9 mph0.32 inRainHeavy Rain
10:00 PM75.2 °F73.4 °F94 %29.89 in2.5 miSouth (170°)10.4 mph0.04 inRainHeavy Rain
10:09 PM75.2 °F73.4 °F94 %29.88 in1.8 miSouth (180°)5.8 mph0.21 inRainHeavy Rain
10:17 PM75.2 °F73.4 °F94 %29.88 in3.0 miSouth (170°)5.8 mph0.28 inRainHeavy Rain
10:29 PM75.2 °F73.4 °F94 %29.88 in7.0 miSSE (160°)6.9 mph0.32 inRainRain
10:54 PM75.0 °F73.9 °F96 %29.84 in7.0 miSouth (180°)5.8 mph0.37 inRainRain
11:54 PM75.0 °F73.9 °F96 %29.83 in6.0 miSSE (160°)5.8 mph0.20 inRainRain
Hourly data recorded from PGUM, located miles away from Camp Quezon, Guam







STORIES FROM OUR PARTNERS